Location: Six Mile Lake
(44.9000°N, 79.7170°W)
Time: 02:16:20
(UTC-04:00)

STRAND 1 - Pass Details

Date: 02 July 2022
Orbit: 767 x 781 km, 98.4° (Epoch: 09 August)

Event Time Altitude Azimuth Distance (km) Brightness Sun altitude
Rises 21:47:22 0° 0° (N) 3,270 ? -6.2°
Reaches altitude 10° 21:50:14 10° 345° (NNW) 2,335 ? -6.6°
Maximum altitude 21:53:53 20° 299° (WNW) 1,732 ? -7.1°
Drops below altitude 10° 21:57:31 10° 253° (WSW) 2,317 ? -7.6°
Sets 22:00:21 0° 237° (WSW) 3,237 ? -7.9°
